"Pseudo-MPEC" for P22oDk4

Created 2026 Jul 28 21:35:11 UT using Find_Orb

Click here for an explanation of pseudo-MPECs

 
 Astrometry: 
     P22oDk4*0C2026 07 25.51204323 10 33.764+18 35 54.77   ~7PE5 21.81wXNEOCPF52
     P22oDk4 0C2026 07 25.53531523 10 35.004+18 36 06.04   ~7PE5 22.21wXNEOCPF52
     P22oDk4 0C2026 07 25.54747023 10 35.627+18 36 11.94   ~7PE5 22.58wXNEOCPF52
     P22oDk4 0C2026 07 25.59873223 10 38.351+18 36 36.73   ~7PLo 23.09GVNEOCPF52
     P22oDk4 0C2026 07 25.59936523 10 38.413+18 36 36.90   ~7PLo 22.39GVNEOCPF52

Station data:
(F52) Pan-STARRS 2, Haleakala  (N20.707382 W156.255910)  US/Hawaii.
   Observers J. Herman, T. Lowe, P. Minguez, A. Schultz, I. Smith. Measurers
   K. Chambers, T. de Boer, J. Fairlamb, H. Gao, M. Huber, C.-C. Lin, E.
   Magnier, Y. Ramanjooloo, R. Wainscoat, R. Weryk. 1.8-m Ritchey-Chrétien +
   CCD.

Orbital elements:  P22oDk4
   Perihelion 2026 Jun 23.952478 +/- 50.9 TT = 22:51:34.0 (JD 2461215.452478)
Epoch 2026 Jul 26.0 TT = JDT 2461247.5   Earth MOID: 0.4719   Ju: 0.6540
M   4.282312877 +/- 42              (J2000 ecliptic)             AutoNEOCP
n   0.133623837 +/- 0.264           Peri.   81.063948 +/- 110
a   3.789193259 +/- 4.99            Node   218.428551 +/- 28
e   0.61966063 +/- 0.247            Incl.    9.872211 +/- 13
P   7.37599                H 21.04  G  0.15   U 11.8  SR
q 1.441179350 +/- 0.533    Q 6.137207169 +/- 8.43
From 5 observations 2026 July 25 (2.1 hr); mean residual 0".13
Residuals in arcseconds: 
260725 F52  .08+  .08+    260725 F52  .23-  .07-    260725 F52  .24+  .04-    
260725 F52  .09+  .05-    260725 F52  .17-  .09+    

Ephemerides (geocentric):
Date (UTC) HH   RA             Dec           delta  r     elong  mag " sig PA
---- --------  ------------   ------------  ------ ------ -----  --- --------
2026 07 28 22  23 13 39.361   +19 00 21.26  .65813 1.4936 125.0 22.4  416  97
2026 07 28 23  23 13 41.463   +19 00 36.89  .65808 1.4938 125.0 22.4  424  97
2026 07 29 00  23 13 43.562   +19 00 52.47  .65803 1.4939 125.1 22.4  431  98
2026 07 29 01  23 13 45.656   +19 01 07.98  .65798 1.4940 125.1 22.4  439  98
2026 07 29 02  23 13 47.746   +19 01 23.44  .65792 1.4941 125.1 22.4  447  98
2026 07 29 03  23 13 49.832   +19 01 38.85  .65787 1.4943 125.2 22.4  456  98
2026 07 29 04  23 13 51.913   +19 01 54.19  .65782 1.4944 125.2 22.4  464  98
2026 07 29 05  23 13 53.991   +19 02 09.48  .65777 1.4945 125.2 22.4  472  98
2026 07 29 06  23 13 56.064   +19 02 24.72  .65772 1.4946 125.2 22.4  481  98
2026 07 29 07  23 13 58.133   +19 02 39.90  .65767 1.4947 125.3 22.4  490  98
2026 07 29 08  23 14 00.198   +19 02 55.02  .65762 1.4949 125.3 22.4  498  99
2026 07 29 09  23 14 02.259   +19 03 10.08  .65757 1.4950 125.3 22.4  507  99
2026 07 29 10  23 14 04.316   +19 03 25.09  .65752 1.4951 125.3 22.4  516  99
2026 07 29 11  23 14 06.368   +19 03 40.04  .65748 1.4952 125.4 22.4  525  99
2026 07 29 12  23 14 08.416   +19 03 54.93  .65743 1.4954 125.4 22.4  534  99
2026 07 29 13  23 14 10.460   +19 04 09.77  .65738 1.4955 125.4 22.4  544  99
2026 07 29 14  23 14 12.500   +19 04 24.55  .65733 1.4956 125.4 22.4  553  99
2026 07 29 15  23 14 14.536   +19 04 39.27  .65728 1.4957 125.5 22.4  563 100
2026 07 29 16  23 14 16.568   +19 04 53.94  .65723 1.4959 125.5 22.4  572 100
2026 07 29 17  23 14 18.595   +19 05 08.55  .65718 1.4960 125.5 22.4  582 100
2026 07 29 18  23 14 20.618   +19 05 23.10  .65713 1.4961 125.6 22.4  592 100
2026 07 29 19  23 14 22.637   +19 05 37.60  .65708 1.4962 125.6 22.4  602 100
2026 07 29 20  23 14 24.652   +19 05 52.04  .65703 1.4964 125.6 22.4  612 100
2026 07 29 21  23 14 26.662   +19 06 06.42  .65699 1.4965 125.6 22.4  623 100
2026 07 29 22  23 14 28.669   +19 06 20.75  .65694 1.4966 125.7 22.4  633 100
2026 07 29 23  23 14 30.671   +19 06 35.02  .65689 1.4967 125.7 22.4  644 100
2026 07 30 00  23 14 32.669   +19 06 49.23  .65684 1.4969 125.7 22.4  654 101
2026 07 30 01  23 14 34.663   +19 07 03.38  .65679 1.4970 125.7 22.4  665 101
2026 07 30 02  23 14 36.653   +19 07 17.48  .65675 1.4971 125.8 22.4  676 101
2026 07 30 03  23 14 38.638   +19 07 31.52  .65670 1.4972 125.8 22.4  687 101
2026 07 30 04  23 14 40.620   +19 07 45.50  .65665 1.4974 125.8 22.4  699 101
2026 07 30 05  23 14 42.597   +19 07 59.43  .65660 1.4975 125.8 22.4  710 101
2026 07 30 06  23 14 44.570   +19 08 13.30  .65656 1.4976 125.9 22.4  722 101
2026 07 30 07  23 14 46.538   +19 08 27.11  .65651 1.4977 125.9 22.4  733 101
2026 07 30 08  23 14 48.503   +19 08 40.86  .65646 1.4979 125.9 22.4  745 102
2026 07 30 09  23 14 50.463   +19 08 54.56  .65642 1.4980 126.0 22.4  757 102
2026 07 30 10  23 14 52.419   +19 09 08.20  .65637 1.4981 126.0 22.4  769 102
2026 07 30 11  23 14 54.372   +19 09 21.78  .65632 1.4982 126.0 22.4  782 102
2026 07 30 12  23 14 56.319   +19 09 35.31  .65627 1.4984 126.0 22.4  794 102
2026 07 30 13  23 14 58.263   +19 09 48.78  .65623 1.4985 126.1 22.4  807 102
2026 07 30 14  23 15 00.202   +19 10 02.19  .65618 1.4986 126.1 22.4  820 102
2026 07 30 15  23 15 02.138   +19 10 15.54  .65614 1.4987 126.1 22.4  833 102
2026 07 30 16  23 15 04.069   +19 10 28.84  .65609 1.4989 126.1 22.4  846 102
2026 07 30 17  23 15 05.996   +19 10 42.08  .65604 1.4990 126.2 22.4  859 102
2026 07 30 18  23 15 07.918   +19 10 55.26  .65600 1.4991 126.2 22.4  873 103
2026 07 30 19  23 15 09.837   +19 11 08.38  .65595 1.4993 126.2 22.4  886 103
2026 07 30 20  23 15 11.751   +19 11 21.45  .65591 1.4994 126.3 22.4  900 103
2026 07 30 21  23 15 13.661   +19 11 34.46  .65586 1.4995 126.3 22.4  914 103